STARLINK-32010, 60279

Orbit data source: Space-Track

STARLINK-32010, 60279 is a payload satellite owned by SpaceX/Seattle (US) in LEO that was launched on Sun, 28 Jul 2024 UTC via an FALCON 9 launch vehicle from the Air Force Eastern Test Range (AFETR). Payload-class satellites include a variety of spacecraft equipped with specific instruments for various scientific and technological missions. These include communications satellites like Starlink; space stations such as the ISS; scientific satellites like the Hubble; Earth observation satellites from companies like Planet Labs, Umbra, and HawkEye 360; GPS; miniature CubeSats for education and research; and military/defense satellites.

Loading next visibility...
Identifier
60279, 2024-132B
Orbit
LEO
Country
Flag of USUS
Related business
Manufacturer
SpaceX/Seattle
Mission
Operational spacecraft
Bus & Motor
STARLINK V2M, Unknown motor
Mass
730 kg wet, ~700 kg dry
Launch date (UTC)
2024-07-28 (1 year ago)
Launch vehicle
FALCON 9
Launch site
Air Force Eastern Test Range (AFETR)
Object type
Payload
Rocket body
Debris
Shape & HBR
Unknown
Radar Cross Section
Large (>1 m²)

Expand to show TLE details & history
Last TLE update: 19 hours ago

TLE from 19 hours ago
0 STARLINK-32010
1 60279U 24132B   25261.23919229  .00004042  00000-0  14853-3 0  9993
2 60279  53.1588 133.7186 0001225  86.9193 273.1948 15.30198780 65154
Epoch: 2025-09-18T05:44Z
TLE epoch observation values (Epoch: 2025-09-18T05:44:26.213Z)
Latitude
-0.00003°
Longitude
50.20571°
Altitude
476.072 km
Speed
7.629 km/s
True Right ascension
08h 54m 52s
True Declination
0° 00' 00"
Sunlit
Object was in daylight at epoch
Visualization orbit readout
Latitude
Unknown
Longitude
Unknown
Altitude
Unknown
Speed
Unknown
Apparent Right ascension
Unknown
Apparent Declination
Unknown
Sunlit
N/A
Visualization observer readout
Local Sidereal Time
17:53:39
Azimuth
Unknown
Elevation
Unknown
Doppler factor
Unknown
Orbital elements
Apogee altitude
476.315 km
Perigee altitude
474.636 km
Semi-major axis
6,853.612 km
Eccentricity
0.00012
Inclination
53.1588°
RAAN
133.7186°
Arg. of periapsis
86.9193°
True anomaly
273.18078°
Mean anomaly
273.1948°
Eccentric anomaly
273.18779°
Mean motion
3.82529 °/min
Orbital period
94.11 mins
BSTAR
0.00014853
Loading maneuver chart data...
Computing Atmospheric mass density...
Loading historical data...
Loading historical data...
Loading historical data...
Loading historical data...
Loading historical data...
Loading historical data...
Loading historical data...

Documentation

Showing up to 5 results
|